Regional Weather Roundup
Issued by NWS Raleigh/Durham, NC

Home | Current Version | Previous Version | Text Only | Print | Product List | Glossary On
Versions: 1 2 3 4 5 6 7 8 9 10 11 12 13 14 15 16 17 18 19 20 21 22 23 24 25 26 27 28 29 30 31 32 33 34 35 36 37 38 39 40 41 42 43 44 45 46 47 48 49 50
000
ASUS42 KRAH 302210
RWRRAH
NORTH CAROLINA WEATHER ROUNDUP
NATIONAL WEATHER SERVICE RALEIGH NC
600 PM EDT TUE SEP 30 2014

NOTE: "FAIR" INDICATES FEW OR NO CLOUDS BELOW 12,000 FEET WITH NO
SIGNIFICANT WEATHER AND/OR OBSTRUCTIONS TO VISIBILITY.

NCZ001-053-055-056-065-067-302300-
WESTERN NORTH CAROLINA

CITY           SKY/WX    TMP DP  RH WIND       PRES   REMARKS
ASHEVILLE      SUNNY     76  51  41 N12       29.94S
JEFFERSON      MOSUNNY   70  50  48 N3        29.98R
MORGANTON      SUNNY     81  53  37 CALM      29.93R
HICKORY        MOSUNNY   79  61  53 CALM      29.88S
RUTHERFORDTON  SUNNY     80  60  51 W3        29.89R
MOUNT AIRY     SUNNY     79  60  52 CALM      29.89F
BOONE          SUNNY     71  48  44 W6        29.99R
$$

NCZ021-022-025-041-071-084-088-302300-
CENTRAL NORTH CAROLINA

CITY           SKY/WX    TMP DP  RH WIND       PRES   REMARKS
CHARLOTTE      MOSUNNY   80  59  48 W3        29.88S
GREENSBORO     MOSUNNY   78  58  49 CALM      29.87S
WINSTON-SALEM  SUNNY     79  58  48 E3        29.88S
RALEIGH-DURHAM MOSUNNY   73  62  68 E5        29.88R
FORT BRAGG     SUNNY     76  64  65 VRB3      29.85S
FAYETTEVILLE   SUNNY     78  64  61 NE7       29.85S
BURLINGTON     SUNNY     79  58  48 CALM      29.87R
LAURINBURG     SUNNY     80  60  50 NE8       29.86R
$$

NCZ011-015-027-028-043-044-047-080-103-302300-
NORTHEASTERN NORTH CAROLINA

CITY           SKY/WX    TMP DP  RH WIND       PRES   REMARKS
ROCKY MT-WILSO SUNNY     72  64  76 N6        29.87S
GREENVILLE     MOSUNNY   77  64  65 N6        29.88R
WASHINGTON     CLEAR     76  63  63 N6        29.85R
ELIZABETH CITY CLEAR     72  62  71 NE10      29.86R
MANTEO         PTCLDY    71  64  77 NE9       29.86R
CAPE HATTERAS  CLEAR     71  65  81 NE8G18    29.83R
$$

NCZ078-087-090-091-093-098-101-302300-
SOUTHEASTERN NORTH CAROLINA

CITY           SKY/WX    TMP DP  RH WIND       PRES   REMARKS
LUMBERTON      SUNNY     80  62  54 N6        29.84S
GOLDSBORO      SUNNY     76  68  74 CALM      29.84R
KINSTON        MOSUNNY   77  64  65 N7        29.86R
KENANSVILLE    MOSUNNY   78  62  58 N5        29.86R
NEW BERN       MOSUNNY   78  63  59 N5        29.85R
CHERRY POINT   CLEAR     75  65  70 NE7       29.85R
BEAUFORT       CLEAR     76  64  66 NE8       29.84R
JACKSONVILLE   PTSUNNY   78  63  59 NE7       29.83R
WILMINGTON     PTSUNNY   80  65  59 N8        29.83R
$$




USA.gov is the U.S. government's official web portal to all federal, state and local government web resources and services.